TIME,DELAY(SENSOR),PRES,OXYGEN,RAWTEMP,T(OPTODE),TCPHASE,FLUOR,BETA(BETA700),BETA(BETA412),BETA(BETA440),CDOM,C(CSC),ED(ED412.20),ED(ED444.00),ED(ED489.60),ED(ED554.30),LU(LU412.10),LU(LU443.90),LU(LU489.70),LU(LU554.70),COMP,TILTX,TILTY,CHECK
1345087385,5809,903.2800292968750000,35.9599990844726560,556.4674072265625000,4.5953269004821780,56.0914916992187500,55,99,101,78,84,15564,0,0,0,0,2147124672,2147776201,2147569398,2147573613,852,3,13,51252
1345090981,5809,967.9899902343750000,37.1114883422851560,565.8275146484375000,4.3051490783691410,56.0079689025878900,55,100,101,78,83,15565,0,0,0,0,2147121188,2147775762,2147579044,2147570880,515,3,13,41391
1345094581,5809,997.5000000000000000,37.8409309387207000,567.7045288085938000,4.2468719482421875,55.9218215942382800,56,98,102,77,82,15563,0,0,0,0,2147120978,2147775533,2147576246,2147574235,3148,3,13,4066
1345098181,5808,996.6400146484375000,38.0369682312011700,567.3641967773438000,4.2574410438537600,55.8833312988281250,55,98,101,78,83,15562,0,0,0,0,2147124141,2147781796,2147572672,2147574464,245,3,13,34700
1345101781,5808,1004.2800292968750000,37.8708801269531250,567.8040161132812000,4.2437820434570310,55.9176712036132800,55,97,101,77,82,15564,0,0,0,0,2147126784,2147771392,2147576914,2147573110,368,3,13,53185
1345105381,5809,1010.0900268554688000,37.3132896423339840,567.4077148437500000,4.2560877799987790,55.9928283691406250,55,100,101,79,82,14773,0,0,0,0,2147124342,2147779766,2147572123,2147571346,199,3,13,23662
1345108981,5809,1014.3499755859375000,36.8396492004394500,566.8156127929688000,4.2744750976562500,56.0616111755371100,56,145,100,77,84,14783,0,0,0,0,2147124653,2147774848,2147579382,2147567798,280,3,13,455
1345112581,5812,1011.7500000000000000,36.7691802978515600,567.3765869140625000,4.2570548057556150,56.0753898620605500,54,123,100,79,82,14779,0,0,0,0,2147124973,2147772717,2147572443,2147568521,89,3,13,57031
1345116181,5809,1013.7700195312500000,36.7010688781738300,567.7573242187500000,4.2452321052551270,56.0925712585449200,56,97,99,77,82,14782,0,0,0,0,2147123245,2147777764,2147575140,2147570486,3263,3,13,22320
1345119781,5812,1011.6799926757812000,36.6946907043457000,568.1729736328125000,4.2323207855224610,56.0972099304199200,56,99,99,79,82,14783,0,0,0,0,2147123922,2147772132,2147571830,2147570550,54,3,13,28388
1345123381,5810,1015.6400146484375000,37.4165916442871100,568.6024780273438000,4.2189807891845700,55.9926986694335940,55,97,102,77,83,14781,0,0,0,0,2147124150,2147780809,2147570441,2147571785,3234,3,13,8232
1345126981,5806,1017.0300292968750000,38.0274085998535160,568.6375122070312000,4.2178940773010250,55.8989410400390600,55,99,100,78,83,14793,0,0,0,0,2147121316,2147777536,2147576813,2147573037,260,3,13,63397
1345130581,5811,1009.2000122070312000,36.6467704772949200,568.5924072265625000,4.2192940711975100,56.1075401306152340,55,98,101,77,82,14819,0,0,0,0,2147125001,2147776310,2147572681,2147571657,3344,3,13,9958
1345134181,5809,1012.4400024414062000,36.9316291809082000,568.5659179687500000,4.2201180458068850,56.0691986083984400,56,101,102,79,84,14818,0,0,0,0,2147126582,2147781549,2147574180,2147568548,3380,3,13,44534
1345137781,5812,1009.5900268554688000,37.4461517333984400,569.2855834960938000,4.1977581977844240,55.9947700500488300,55,99,100,78,82,14819,0,0,0,0,2147123977,2147773659,2147571968,2147569124,386,3,13,32806
1345141381,5811,1011.3300170898438000,37.8414192199707000,569.6970825195312000,4.1849727630615230,55.9361610412597660,55,100,100,78,83,14821,0,0,0,0,2147121033,2147775881,2147571648,2147571849,3243,3,13,52787
1345144981,5807,1013.8699951171875000,37.7256088256835940,568.9918823242188000,4.2068819999694820,55.9445304870605500,55,98,100,79,83,15560,0,0,0,0,2147124114,2147772690,2147573129,2147569088,3578,3,13,22658
1345148581,5809,1017.4699707031250000,37.1938705444335940,568.7451171875000000,4.2145500183105470,56.0254516601562500,55,96,102,77,83,15559,0,0,0,0,2147121142,2147779309,2147573915,2147571904,395,3,13,21697
1345152181,5810,1024.4100341796875000,37.2762298583984400,568.4793090820312000,4.2228069305419920,56.0116004943847660,55,100,100,78,83,15560,0,0,0,0,2147127917,2147775296,2147571675,2147574016,309,3,13,53421
1345155781,5808,1024.0899658203125000,35.9802589416503900,568.3864135742188000,4.2256951332092285,56.2146987915039060,55,97,100,77,83,15558,0,0,0,0,2147123867,2147777536,2147568685,2147571428,311,3,13,2116
1345159381,5807,1022.6900024414062000,36.0951499938964840,568.3687133789062000,4.2262439727783200,56.1914291381835940,55,98,101,78,84,15560,0,0,0,0,2147123520,2147777252,2147572242,2147571108,393,3,13,18847
1345162981,5810,1017.1400146484375000,36.5261688232421900,568.6149291992188000,4.2185940742492680,56.1292610168457000,54,99,101,78,83,15558,0,0,0,0,2147122605,2147775140,2147575478,2147573769,232,3,13,56734
1345166581,5813,1021.3599853515625000,37.9224510192871100,569.2487792968750000,4.1989021301269530,55.9207115173339840,55,97,100,78,84,15548,0,0,0,0,2147120603,2147771072,2147576585,2147570130,3548,3,13,32498
1345170181,5808,1017.4600219726562000,37.7228584289550800,569.8104858398438000,4.1814498901367190,55.9565696716308600,55,101,101,77,82,15556,0,0,0,0,2147123181,2147775030,2147571684,2147573467,186,3,13,44911
1345173781,5812,1022.9600219726562000,37.1476593017578100,568.7033081054688000,4.2158489227294920,56.0357398986816400,56,98,100,79,82,15550,0,0,0,0,2147124425,2147773229,2147572452,2147573010,3555,3,13,18660
1345177381,5808,1022.2899780273438000,37.5362281799316400,569.2807006835938000,4.1979122161865230,55.9813117980957000,56,99,101,77,84,15550,0,0,0,0,2147123163,2147775734,2147570285,2147571876,218,3,13,45359
1345180981,5808,1018.8699951171875000,36.8373489379882800,568.8654785156250000,4.2108120918273930,56.0850486755371100,56,101,101,78,83,15550,0,0,0,0,2147123136,2147775478,2147573613,2147572800,2997,3,13,39006
1345184581,5807,1020.7500000000000000,37.7074890136718750,569.1340942382812000,4.2024669647216800,55.9548912048339840,55,98,100,77,82,15548,0,0,0,0,2147123282,2147777837,2147569024,2147572150,178,3,13,27411
1345188181,5810,1021.7399902343750000,36.9220695495605500,569.2103881835938000,4.2000961303710940,56.0762901306152340,55,98,101,79,83,15550,0,0,0,0,2147123721,2147774838,2147574409,2147570578,3526,3,13,50293
1345191781,5810,1027.9799804687500000,37.7223205566406250,568.6500244140625000,4.2175049781799320,55.9476699829101560,55,98,101,78,83,15539,0,0,0,0,2147123456,2147770093,2147574171,2147568694,3397,3,13,6346
1345195381,5812,1029.5200195312500000,36.8394889831543000,568.2191772460938000,4.2308859825134280,56.0801391601562500,55,97,101,78,83,15542,0,0,0,0,2147124406,2147778578,2147572214,2147569737,3434,3,13,33749
1345198981,5812,1027.1700439453125000,36.8475990295410160,568.6682128906250000,4.2169399261474610,56.0836410522460940,54,100,101,77,83,15540,0,0,0,0,2147121536,2147774546,2147574235,2147569435,23,3,13,47191
1345202581,5808,1026.0699462890625000,37.4356193542480500,568.5114135742188000,4.2218108177185060,55.9900894165039060,55,99,100,78,83,15541,0,0,0,0,2147125540,2147781549,2147574281,2147572205,33,3,13,33020
1345206181,5808,1032.4200439453125000,36.7422485351562500,568.7310791015625000,4.2149848937988280,56.0958595275878900,55,98,101,79,84,15527,0,0,0,0,2147123666,2147777545,2147575762,2147569481,266,3,13,4120
1345209781,5807,1028.1099853515625000,37.3741188049316400,568.2409057617188000,4.2302131652832030,55.9970588684082000,55,97,101,77,84,15522,0,0,0,0,2147122038,2147772745,2147574912,2147572946,169,3,13,62885
1345213381,5810,1028.6600341796875000,36.9089202880859400,568.8137817382812000,4.2124161720275880,56.0699691772460940,55,110,101,78,83,15520,0,0,0,0,2147123529,2147776128,2147574884,2147569874,199,3,13,46118
1345216981,5809,1030.4899902343750000,36.8338203430175800,568.7913818359375000,4.2131118774414060,56.0847511291503900,55,98,102,77,83,15529,0,0,0,0,2147123574,2147775552,2147572854,2147573458,240,3,13,22514
1345220581,5809,1027.4200439453125000,37.6485900878906250,568.3120727539062000,4.2280030250549320,55.9534912109375000,54,101,101,78,82,15525,0,0,0,0,2147123721,2147777024,2147574144,2147569673,268,3,13,58805
1345224181,5809,1028.5699462890625000,36.2403717041015600,569.0806884765625000,4.2041239738464355,56.1749992370605500,55,98,101,78,83,15523,0,0,0,0,2147123282,2147771757,2147570166,2147568996,292,3,13,28311
1345227781,5809,1023.1099853515625000,36.5195503234863300,568.5913696289062000,4.2193260192871090,56.1308288574218750,55,98,101,79,83,15519,0,0,0,0,2147132745,2147775058,2147571940,2147575652,3372,3,13,35180
1345231381,5809,1022.8099975585938000,37.5704307556152340,570.3284912109375000,4.1653518676757810,55.9860000610351560,55,100,99,78,83,15519,0,0,0,0,2147117348,2147769773,2147567753,2147562797,3457,3,13,18235
1345231555,5810,1023.6599731445312000,37.5319213867187500,570.2329101562500000,4.1683239936828610,55.9919509887695300,55,99,100,77,83,15520,0,0,0,0,2147125851,2147771227,2147573760,2147571693,3436,3,13,60204
